GW1174 Weather Reports


Display with metric or nautical units.
time (UTC)temp
F
wind
direction
speed
MPH
gust
MPH
rain 1hr
in
rain 24hr
in
rain mn
in
humidity
%
barometer
mb
20260905085017 30 351 0.0 0.0 0.00 0.20 0.20 79 1118.3
20260905084017 63 225 5.0 9.0 0.00 0.09 0.09 82 1021.0
20260905083017 30 354 0.0 0.0 0.00 0.20 0.20 79 1118.7
20260905082017 30 355 0.0 0.0 0.00 0.20 0.20 79 1118.9
20260905081017 61 270 5.0 8.0 0.00 0.09 0.09 88 1020.9
20260905080017 30 356 0.0 0.0 0.00 0.20 0.20 79 1119.3
20260905075037 59 248 7.0 12.0 0.00 0.09 0.09 90 1020.6
20260905074017 59 225 3.0 7.0 0.00 0.09 0.09 91 1020.5
20260905073021 59 270 3.0 9.0 0.00 0.09 0.09 92 1020.2
20260905073017 31 358 0.0 0.0 0.00 0.20 0.20 80 1119.7
20260905072017 59 293 1.0 2.0 0.00 0.09 0.09 92 1020.2
20260905071017 58 203 3.0 5.0 0.00 0.09 0.09 92 1020.1
20260905070037 58 225 2.0 4.0 0.00 0.09 0.09 92 1020.0
20260905065017 58 203 2.0 4.0 0.00 0.09 0.09 92 1019.9
20260905064017 32 360 0.0 0.0 0.00 0.20 0.20 80 1120.0
20260905063017 57 158 3.0 6.0 0.00 0.09 0.09 92 1019.7
20260905062017 57 158 2.0 4.0 0.00 0.09 0.09 92 1019.6
20260905061017 56 158 2.0 4.0 0.00 0.09 0.09 92 1019.6
20260905060017 34 360 0.0 0.0 0.00 0.20 0.20 80 1119.9
20260905055017 55 0.0 0.0 0.00 0.09 0.09 91 1019.4
20260905054017 35 359 0.0 0.0 0.00 0.20 0.20 80 1119.8
20260905053017 55 0.0 1.0 0.00 0.09 0.09 91 1019.4
20260905052017 36 358 0.0 0.0 0.00 0.20 0.20 80 1119.6
20260905051017 37 357 0.0 0.0 0.00 0.20 0.20 80 1119.5
20260905050017 38 357 0.0 0.0 0.00 0.20 0.20 79 1119.3
20260905045017 54 0.0 0.0 0.00 0.09 0.09 90 1019.0
20260905044017 54 0.0 0.0 0.00 0.09 0.09 90 1018.8
20260905043037 40 354 0.0 0.0 0.00 0.20 0.20 79 1118.8
20260905043018 54 0.0 1.0 0.00 0.09 0.09 90 1018.6
20260905042037 41 353 0.0 0.0 0.00 0.20 0.20 79 1118.6
20260905041017 41 352 0.0 0.0 0.00 0.20 0.20 79 1118.4
20260905040017 42 351 0.0 0.0 0.00 0.20 0.20 78 1118.2
20260905035057 54 0.0 1.0 0.00 0.09 0.09 88 1018.6
20260905034017 54 0.0 1.0 0.01 0.09 0.09 88 1018.1
20260905033017 45 347 0.0 0.0 0.00 0.20 0.20 78 1117.4
20260905032017 45 345 0.0 1.0 0.00 0.20 0.20 78 1117.0
20260905031017 46 344 0.0 1.0 0.00 0.20 0.20 77 1116.7
20260905030017 47 342 1.0 1.0 0.00 0.20 0.20 77 1116.4
20260905025017 48 340 1.0 1.0 0.00 0.20 0.20 77 1116.1
20260905024017 57 0.0 2.0 0.08 0.09 0.09 85 1018.4
20260905023017 50 336 1.0 1.0 0.00 0.20 0.20 76 1115.3
20260905022017 51 334 1.0 1.0 0.00 0.20 0.20 76 1114.9
20260905021017 52 332 1.0 1.0 0.00 0.20 0.20 75 1114.5
20260905020017 52 330 1.0 1.0 0.00 0.20 0.20 75 1114.1
20260905015017 53 328 1.0 1.0 0.01 0.20 0.20 75 1113.7
20260905014017 54 326 1.0 1.0 0.02 0.20 0.20 74 1113.2
20260905013017 55 323 1.0 1.0 0.03 0.20 0.20 74 1112.7
20260905012017 56 321 1.0 1.0 0.04 0.20 0.20 73 1112.3
20260905011017 57 318 1.0 1.0 0.05 0.20 0.20 73 1111.8
20260905010037 57 316 1.0 1.0 0.06 0.20 0.20 73 1111.3
20260905005037 58 313 1.0 2.0 0.06 0.20 0.19 72 1110.8
20260905004017 59 311 1.0 2.0 0.06 0.20 0.18 72 1110.2
20260905003017 60 308 1.0 2.0 0.07 0.20 0.17 71 1109.7
20260905002016 61 305 2.0 2.0 0.07 0.20 0.16 71 1109.1
20260905001017 61 302 2.0 2.0 0.07 0.20 0.15 70 1108.6
20260905000017 62 299 2.0 2.0 0.07 0.20 0.14 70 1108.0
20260904235037 63 296 2.0 2.0 0.07 0.20 0.13 69 1107.4
20260904234017 63 293 2.0 2.0 0.07 0.20 0.12 69 1106.8
20260904233017 64 290 2.0 2.0 0.06 0.20 0.10 68 1106.2
20260904232017 65 287 2.0 2.0 0.06 0.20 0.09 68 1105.6
20260904231037 65 284 2.0 3.0 0.06 0.20 0.08 67 1105.0
20260904230017 66 281 2.0 3.0 0.07 0.20 0.07 67 1104.3
20260904225017 66 277 2.0 3.0 0.06 0.20 0.06 66 1103.7
20260904224017 67 274 2.0 3.0 0.05 0.20 0.05 66 1103.0
20260904223017 67 271 2.0 3.0 0.04 0.20 0.04 65 1102.3
20260904222017 68 267 3.0 3.0 0.03 0.20 0.03 65 1101.7
20260904221017 68 264 3.0 3.0 0.02 0.20 0.02 64 1101.0
20260904220017 68 260 3.0 3.0 0.00 0.20 0.00 63 1100.3
20260904215017 69 257 3.0 3.0 0.00 0.20 0.20 63 1099.6
20260904214017 69 253 3.0 4.0 0.00 0.20 0.20 62 1098.9
20260904213017 69 250 3.0 4.0 0.00 0.20 0.20 62 1098.2
20260904212017 69 246 3.0 4.0 0.00 0.20 0.20 61 1097.5
20260904211017 73 225 2.0 4.0 0.00 0.00 0.00 65 1013.6
20260904210017 73 248 3.0 7.0 0.00 0.00 0.00 65 1013.5
20260904205017 70 235 3.0 4.0 0.00 0.20 0.20 59 1095.3
20260904204037 73 203 4.0 9.0 0.00 0.00 0.00 65 1013.3
20260904203017 70 227 4.0 4.0 0.00 0.20 0.20 58 1093.8
20260904202017 70 224 4.0 5.0 0.00 0.20 0.20 57 1093.0
20260904201017 70 220 4.0 5.0 0.00 0.20 0.20 57 1092.3
20260904200017 73 225 5.0 12.0 0.00 0.00 0.00 66 1013.1
20260904195038 73 180 3.0 5.0 0.00 0.00 0.00 65 1013.1
20260904194016 73 203 4.0 6.0 0.00 0.00 0.00 65 1012.9
20260904193017 74 180 3.0 6.0 0.00 0.00 0.00 64 1013.0
20260904192017 69 201 4.0 5.0 0.00 0.20 0.20 53 1088.4
20260904191057 69 197 5.0 5.0 0.00 0.20 0.20 53 1087.7
20260904190017 69 193 5.0 6.0 0.00 0.20 0.20 52 1086.9
20260904185017 75 203 4.0 8.0 0.00 0.00 0.00 61 1012.9
20260904184017 68 185 5.0 6.0 0.00 0.20 0.20 51 1085.3
20260904183017 67 181 5.0 6.0 0.00 0.20 0.20 50 1084.6
20260904182017 67 177 5.0 6.0 0.00 0.20 0.20 49 1083.8
20260904181016 66 173 5.0 6.0 0.00 0.20 0.20 49 1083.0
20260904180017 66 169 5.0 6.0 0.00 0.20 0.20 48 1082.2
20260904175017 65 165 5.0 7.0 0.00 0.20 0.20 48 1081.5
20260904174016 79 225 6.0 12.0 0.00 0.00 0.00 56 1012.7
20260904173017 64 157 6.0 7.0 0.00 0.20 0.20 46 1079.9
20260904172017 64 154 6.0 7.0 0.00 0.20 0.20 46 1079.2
20260904171017 63 150 6.0 7.0 0.00 0.20 0.20 45 1078.4
20260904170037 62 146 6.0 7.0 0.00 0.20 0.20 44 1077.6
20260904165037 62 142 6.0 7.0 0.00 0.20 0.20 44 1076.9
20260904164017 61 138 6.0 7.0 0.00 0.20 0.20 43 1076.1
20260904163017 60 134 6.0 8.0 0.00 0.20 0.20 42 1075.4
20260904162017 59 131 6.0 8.0 0.00 0.20 0.20 42 1074.6
20260904161017 59 127 6.0 8.0 0.00 0.20 0.20 41 1073.9
20260904160017 58 123 7.0 8.0 0.00 0.20 0.20 41 1073.1
20260904155017 57 119 7.0 8.0 0.00 0.20 0.20 40 1072.4
20260904154022 81 203 7.0 15.0 0.00 0.04 0.00 53 1013.0
20260904154017 56 116 7.0 8.0 0.00 0.20 0.20 39 1071.7
20260904153017 55 112 7.0 8.0 0.00 0.20 0.20 39 1070.9
20260904152017 55 108 7.0 8.0 0.00 0.20 0.20 38 1070.2
20260904151041 82 203 10.0 16.0 0.00 0.06 0.00 52 1013.4
20260904151037 54 105 7.0 9.0 0.00 0.20 0.20 37 1069.5
20260904150017 53 101 7.0 9.0 0.00 0.20 0.20 37 1068.8
20260904145017 82 225 9.0 15.0 0.00 0.10 0.00 54 1013.6
20260904144017 51 94 7.0 9.0 0.00 0.20 0.20 36 1067.4
20260904143017 50 91 7.0 9.0 0.00 0.20 0.20 35 1066.7
20260904142017 49 87 8.0 9.0 0.00 0.20 0.20 35 1066.1
20260904141017 48 84 8.0 9.0 0.00 0.20 0.20 34 1065.4
20260904140017 48 81 8.0 9.0 0.00 0.20 0.20 33 1064.8
20260904135017 47 78 8.0 9.0 0.00 0.20 0.20 33 1064.1
20260904134037 46 74 8.0 10.0 0.00 0.20 0.20 32 1063.5
20260904133018 81 203 8.0 17.0 0.00 0.19 0.00 56 1014.4
20260904132018 81 225 7.0 14.0 0.00 0.20 0.00 56 1014.5
20260904131018 82 203 9.0 19.0 0.00 0.21 0.00 56 1014.7
20260904130017 43 62 8.0 10.0 0.00 0.20 0.20 30 1061.0
20260904125018 79 225 9.0 15.0 0.00 0.21 0.00 57 1015.0
20260904124017 41 56 8.0 10.0 0.00 0.20 0.20 29 1059.9
20260904123017 80 225 9.0 16.0 0.00 0.21 0.00 59 1015.2
20260904122018 80 225 7.0 16.0 0.00 0.21 0.00 57 1015.8
20260904121017 81 203 8.0 15.0 0.00 0.21 0.00 57 1016.0
20260904120017 38 45 9.0 11.0 0.00 0.20 0.20 28 1057.7
20260904115018 79 270 8.0 14.0 0.00 0.21 0.00 61 1016.0
20260904114017 37 40 9.0 11.0 0.00 0.20 0.20 27 1056.7
20260904113018 79 225 8.0 14.0 0.00 0.21 0.00 62 1016.2
20260904112018 78 203 10.0 21.0 0.00 0.21 0.00 63 1016.2
20260904111017 35 33 9.0 11.0 0.00 0.20 0.20 26 1055.3
20260904110037 34 31 9.0 11.0 0.00 0.20 0.20 25 1054.9
20260904105017 76 225 9.0 21.0 0.00 0.21 0.00 64 1016.3
20260904104018 76 225 10.0 17.0 0.00 0.21 0.00 65 1016.4
20260904104016 33 27 9.0 11.0 0.00 0.20 0.20 24 1054.0
20260904103017 77 270 8.0 19.0 0.00 0.21 0.00 67 1016.5
20260904102017 76 225 9.0 18.0 0.00 0.21 0.00 69 1016.6
20260904101017 32 21 9.0 11.0 0.00 0.20 0.20 23 1052.9
20260904100037 32 19 9.0 11.0 0.00 0.20 0.20 23 1052.5
20260904095017 74 225 7.0 13.0 0.00 0.21 0.00 76 1017.3
20260904094017 73 203 6.0 11.0 0.00 0.21 0.00 77 1017.3
20260904093017 72 180 7.0 13.0 0.00 0.21 0.00 80 1017.6
20260904092019 70 203 6.0 13.0 0.00 0.21 0.00 83 1017.6
20260904092017 31 13 10.0 12.0 0.00 0.20 0.20 22 1051.3
20260904091018 69 203 6.0 10.0 0.00 0.21 0.00 85 1017.7
20260904090017 68 180 4.0 8.0 0.00 0.21 0.00 87 1017.7